ギブス彗星

P/2011 S1 ( Gibbs )

English version
Home page
Updated on February 6, 2012

---------------------------------------------------------------------

・ プロフィール

発見日 2011年9月18日
発見光度 21.2等
発見者 A. R. Gibbs (Mt. Lemmon)

・ 写真集

・ 軌道要素

Epoch 2014 Sept. 20.0 TT = JDT 2456920.5
T 2014 Oct. 4.14570 TT                                  MPC
q   7.0250131            (2000.0)            P               Q
n   0.04013812     Peri.  194.09702     +0.60868252     -0.79287205
a   8.4482095      Node   218.42085     +0.73243738     +0.57572520
e   0.1684613      Incl.    2.70405     +0.30502636     +0.19973587
P  24.6
From 54 observations 2011 Sept. 6-Nov. 14, mean residual 0".7.

・ 光度変化

        m1 = 7.0 + 5 logΔ + 10.0 log r

---------------------------------------------------------------------

軌道要素はM.P.E.C. 2012-C24に掲載されたものです。
光度グラフはComet for Windowsで作成したものです。

---------------------------------------------------------------------

Copyright(C) Seiichi Yoshida (comet@aerith.net). All rights reserved.